GEO-KOMPSAT-2A

Last updated on Tue Sep 22 2026 00:02:53 GMT+0000 (Coordinated Universal Time)

1 43823U 18100A 26264.51446412 -.00000348 00000+0 00000+0 0 9991 2 43823 0.0449 19.1553 0001851 107.6922 187.0312 1.00271131 28597
UTC large
Height (km)
Speed (km/s)
/
Latitude / Longitude
Inclination (degrees)
Orbital Period (minutes)
Azimuth
Elevation
Range (km)
Doppler Factor

Next 0 passes for location: London (51.5072 / 0.1276)

No passes found over London.
GEO-KOMPSAT-2A